[[{"header":{"parameterUnit":"m.s-1","parameterCategory":1,"la1":30.2992,"la2":30.254,"lo1":-89.0895,"lo2":-89.0443,"dy":0.0025,"dx":0.0025,"nx":19,"ny":19,"refTime":"2026-04-04T03:00:00:Z","depth":0,"parameterNumber":2,"parameterNumberName":"U-component_of_WINDS"},"data":[0,0,0,-4.7555,-4.7558,-4.7709,-4.7709,-4.7907,-4.7908,0,0,0,0,0,0,0,0,0,0,0,-4.7513,-4.7515,-4.7555,-4.7559,-4.7708,-4.7709,-4.7906,-4.7908,0,0,0,0,0,0,0,0,0,0,0,-4.7513,-4.7514,-4.7516,-4.7559,-4.7708,-4.7709,-4.7906,-4.7791,0,0,0,0,0,0,0,0,0,0,-4.7644,-4.7608,-4.7514,-4.7516,-4.756,-4.7708,-4.7709,-4.7785,-4.7798,-4.7841,0,-4.7879,0,-4.7897,-4.7922,-4.7923,0,0,0,-4.7556,-4.7598,-4.7636,-4.7517,-4.7561,-4.7708,-4.764,-4.7792,-4.7807,-4.7858,-4.7882,-4.7889,-4.79,-4.7923,-4.7924,-4.8178,-4.8179,0,0,-4.7548,-4.7542,-4.7626,-4.7645,-4.7622,-4.7635,-4.7645,-4.7801,-4.7827,-4.7883,-4.7894,-4.7904,-4.7925,-4.7926,-4.8177,-4.8178,0,0,0,-4.7526,-4.7536,-4.757,-4.7637,-4.7664,-4.764,-4.7651,-4.782,-4.7832,-4.7896,-4.7906,-4.7926,-4.7928,-4.8175,-4.8177,-4.8233,0,0,0,-4.7521,-4.7523,-4.7567,-4.7564,-4.7661,-4.7744,-4.7667,-4.7821,-4.7839,-4.7905,-4.7926,-4.793,-4.8174,-4.8176,-4.8228,-4.8259,0,0,0,-4.7503,-4.7521,-4.7544,-4.7564,-4.7628,-4.7741,-4.7762,-4.7825,-4.7845,-4.7923,-4.7931,-4.8173,-4.8176,-4.8224,-4.8252,-4.8322,0,0,0,-4.7482,-4.7592,-4.7545,-4.7672,-4.7627,-4.7775,-4.7761,-4.7872,-4.7945,-4.7927,-4.8174,-4.8177,-4.8223,-4.8248,-4.8318,-4.8378,-4.8403,0,0,-4.7617,-4.7608,-4.7683,-4.7645,-4.78,-4.7753,-4.7916,-4.799,-4.8004,-4.8119,-4.8125,-4.8229,-4.8252,-4.8321,-4.8551,-4.8571,0,0,0,-4.7724,-4.7778,-4.782,-4.789,-4.7949,-4.8002,-4.8051,-4.8079,-4.8177,-4.8062,-4.8275,-4.8289,-4.833,-4.8359,-4.8376,-4.8411,-4.8191,-4.8191,-4.819,-4.7904,-4.7916,-4.8041,-4.8071,-4.8139,-4.819,-4.8246,-4.8292,-4.8284,-4.8335,-4.8367,-4.8505,-4.8539,-4.8552,-4.8588,-4.8403,-4.8403,-4.8403,-4.8403,-4.8102,-4.8179,-4.8167,-4.8283,-4.8296,-4.8394,-4.8448,-4.8439,-4.8533,-4.8481,-4.8518,-4.8458,-4.8573,-4.8606,-4.8408,-4.8407,-4.8406,-4.8406,-4.8406,-4.8219,-4.8257,-4.829,-4.8391,-4.8469,-4.8497,-4.8587,-4.8596,-4.8605,-4.8642,-4.8677,-4.8676,-4.8674,-4.8659,-4.8659,-4.866,-4.866,-4.866,-4.8661,-4.8326,-4.8361,-4.8435,-4.8508,-4.8554,-4.8616,-4.8669,-4.8715,-4.8768,-4.8767,-4.8767,-4.8753,-4.8584,-4.8539,-4.8668,-4.8667,-4.8666,-4.8665,-4.8664,-4.8517,-4.8475,-4.859,-4.8636,-4.8722,-4.8799,-4.881,-4.8903,-4.8942,-4.8986,-4.8966,-4.884,-4.8831,-4.8818,-4.878,-4.8964,-4.8964,-4.8964,-4.8964,-4.8613,-4.8611,-4.8729,-4.8802,-4.8875,-4.8897,-4.9027,-4.907,-4.9109,-4.9134,-4.911,-4.9063,-4.9049,-4.9048,-4.903,-4.8995,-4.9229,-4.9229,-4.923,-4.873,-4.8735,-4.8842,-4.8879,-4.8948,-4.9007,-4.9129,-4.9213,-4.9249,-4.9241,-4.9154,-4.9142,-4.9067,-4.9042,-4.9027,-4.8998,-4.8935,0,0]},{"header":{"parameterUnit":"m.s-1","parameterCategory":1,"la1":30.2992,"la2":30.254,"lo1":-89.0895,"lo2":-89.0443,"dy":0.0025,"dx":0.0025,"nx":19,"ny":19,"refTime":"2026-04-04T03:00:00:Z","depth":0,"parameterNumber":3,"parameterNumberName":"V-component_of_WINDS"},"data":[0,0,0,3.3871,3.3873,3.3991,3.3992,3.4135,3.4137,0,0,0,0,0,0,0,0,0,0,0,3.3832,3.3833,3.387,3.3873,3.3991,3.3992,3.4135,3.4137,0,0,0,0,0,0,0,0,0,0,0,3.3832,3.3833,3.3834,3.3874,3.3991,3.3992,3.4135,3.4048,0,0,0,0,0,0,0,0,0,0,3.3935,3.3896,3.3833,3.3834,3.3874,3.3991,3.3992,3.4044,3.4054,3.4079,0,3.4102,0,3.4122,3.4146,3.4146,0,0,0,3.3875,3.3888,3.3923,3.3834,3.3876,3.3991,3.3939,3.4049,3.406,3.4092,3.4104,3.411,3.4124,3.4147,3.4147,3.4293,3.4294,0,0,3.3869,3.3851,3.3916,3.393,3.3913,3.3935,3.3942,3.4056,3.4068,3.4105,3.4113,3.4127,3.4148,3.4149,3.4293,3.4293,0,0,0,3.3849,3.3846,3.3879,3.3924,3.3946,3.3938,3.3947,3.4063,3.4075,3.4115,3.4128,3.4149,3.415,3.4292,3.4293,3.4306,0,0,0,3.3845,3.3835,3.3876,3.3866,3.3944,3.4006,3.395,3.4067,3.408,3.4128,3.4149,3.4152,3.4291,3.4292,3.4304,3.4314,0,0,0,3.3826,3.3832,3.3848,3.3865,3.3915,3.4004,3.4023,3.407,3.4089,3.4147,3.4152,3.4291,3.4292,3.4302,3.4312,3.4349,0,0,0,3.3799,3.3855,3.3848,3.3917,3.3914,3.4012,3.4023,3.4096,3.4147,3.4149,3.4291,3.4293,3.4302,3.431,3.4347,3.4377,3.4388,0,0,3.386,3.3862,3.3904,3.3901,3.3996,3.3995,3.4092,3.4154,3.4175,3.4252,3.4256,3.4305,3.4312,3.4349,3.4454,3.4462,0,0,0,3.3917,3.3947,3.3977,3.4026,3.4077,3.4122,3.4172,3.4196,3.4263,3.4212,3.4328,3.4333,3.4355,3.4371,3.4378,3.4399,3.4299,3.4299,3.4299,3.3977,3.4003,3.4075,3.4117,3.4164,3.4218,3.4259,3.43,3.431,3.4337,3.436,3.4421,3.4438,3.4444,3.4466,3.4378,3.4378,3.4378,3.4378,3.4069,3.4117,3.4133,3.4209,3.4236,3.43,3.4354,3.436,3.4423,3.4405,3.4426,3.4405,3.4453,3.4473,3.4379,3.4379,3.4379,3.4379,3.4379,3.4112,3.4139,3.4169,3.4246,3.4302,3.4341,3.4403,3.4425,3.4446,3.4467,3.4495,3.4495,3.4498,3.4479,3.4479,3.4479,3.4479,3.4479,3.448,3.4144,3.4177,3.4227,3.4289,3.4325,3.4376,3.4432,3.4468,3.4514,3.4525,3.4526,3.4534,3.4452,3.4432,3.4483,3.4482,3.4482,3.4482,3.4481,3.4228,3.4214,3.429,3.4327,3.4404,3.4459,3.4488,3.456,3.4593,3.4623,3.4628,3.4564,3.4567,3.4561,3.4544,3.4622,3.4622,3.4622,3.4622,3.4265,3.4269,3.4355,3.4413,3.4472,3.4507,3.4594,3.4639,3.4683,3.4706,3.4698,3.4677,3.4671,3.4678,3.467,3.4654,3.4758,3.4758,3.4758,3.4319,3.4331,3.4401,3.4446,3.4508,3.4561,3.4644,3.471,3.4757,3.4764,3.4724,3.4719,3.4686,3.4673,3.4679,3.4666,3.4638,0,0]}]]